1517076000.55,57415,10.63,74210.8,-5.19,-31.29,-31.29,0,*5F
1517076001.82,57416,10.56,74208.0,-5.21,-31.23,-31.23,0,*57
1517076003.09,57417,10.63,74212.0,-5.21,-31.11,-31.11,0,*56
1517076004.32,57418,10.63,74208.5,-5.19,-31.05,-31.05,0,*52
1517076005.58,57419,10.63,74210.3,-5.21,-30.89,-30.89,0,*58
1517076006.88,57420,10.63,74212.0,-5.19,-30.77,-30.77,0,*59
1517076008.17,57421,10.63,74204.8,-5.19,-30.89,-30.89,0,*58
1517076009.37,57422,10.63,74208.5,-5.17,-31.05,-31.05,0,*55
1517076010.61,57423,10.63,74206.0,-5.19,-31.29,-31.29,0,*5A
1517076011.81,57424,10.63,74210.3,-5.17,-31.01,-31.01,0,*53
1517076013.02,57425,10.63,74212.0,-5.17,-31.05,-31.17,0,*51
1517076014.25,57426,10.56,74206.5,-5.17,-30.89,-31.01,0,*50
1517076015.47,57427,10.63,74204.8,-5.17,-30.83,-30.83,0,*50
1517076016.71,57428,10.63,74206.0,-5.17,-30.83,-30.77,0,*54
1517076017.96,57429,10.63,74202.5,-5.17,-30.89,-30.83,0,*54
1517076019.22,57430,10.63,74202.0,-5.17,-30.89,-30.89,0,*56
1517076020.46,57431,10.63,74200.5,-5.17,-31.01,-30.89,0,*56
1517076021.66,57432,10.63,74202.0,-5.17,-31.05,-31.05,0,*54
1517076022.87,57433,10.63,74200.5,-5.17,-31.05,-31.17,0,*56
1517076024.07,57434,10.63,74198.5,-5.17,-31.05,-31.17,0,*51
1517076025.28,57435,10.63,74202.0,-5.13,-31.01,-31.17,0,*50
1517076026.52,57436,10.63,74200.3,-5.13,-31.17,-31.23,0,*53
1517076027.73,57437,10.63,74202.8,-5.17,-31.17,-31.17,0,*51
1517076028.96,57438,10.63,74200.5,-5.13,-31.17,-31.23,0,*5D
1517076030.2,57439,10.63,74200.5,-5.17,-31.17,-31.23,0,*58
1517076031.44,57440,10.63,74202.5,-5.19,-31.29,-31.29,0,*5F
1517076032.67,57441,10.63,74202.0,-5.17,-31.29,-31.23,0,*5A
1517076033.94,57442,10.63,74202.5,-5.17,-31.23,-31.23,0,*53
1517076035.18,57443,10.63,74204.3,-5.13,-31.23,-31.33,0,*57
1517076036.39,57444,10.63,74204.0,-5.17,-31.29,-31.45,0,*5F
1517076037.62,57445,10.63,74206.3,-5.17,-31.29,-31.39,0,*55
1517076038.83,57446,10.63,74208.5,-5.17,-31.17,-31.29,0,*5A
1517076040.07,57447,10.63,74208.0,-5.13,-31.11,-31.01,0,*53
1517076041.28,57448,10.63,74210.0,-5.17,-31.17,-31.29,0,*54
1517076042.54,57449,10.63,74208.8,-5.17,-31.23,-31.23,0,*58
1517076043.78,57450,10.63,74206.5,-5.17,-31.29,-31.39,0,*51
1517076044.99,57451,10.63,74210.8,-5.17,-31.17,-31.17,0,*51
1517076046.22,57452,10.63,74206.8,-5.13,-31.01,-31.11,0,*57
1517076047.45,57453,10.63,74204.0,-5.19,-31.29,-31.29,0,*5D
1517076048.67,57454,10.63,74204.8,-5.17,-31.17,-31.17,0,*54
1517076049.93,57455,10.63,74208.3,-5.17,-31.23,-31.23,0,*55
1517076051.17,57456,10.63,74208.8,-5.17,-31.23,-31.29,0,*5C
1517076052.37,57457,10.63,74208.0,-5.17,-31.01,-31.01,0,*57
1517076053.61,57458,10.63,74210.5,-5.17,-31.01,-30.89,0,*59
1517076054.81,57459,10.63,74208.5,-5.17,-31.05,-31.01,0,*5D
1517076056.08,57460,10.63,74208.5,-5.17,-31.23,-31.23,0,*53
1517076057.34,57461,10.63,74210.5,-5.17,-31.39,-31.39,0,*52
1517076058.55,57462,10.63,74210.8,-5.17,-31.29,-31.29,0,*51
1517076059.81,57463,10.63,74212.5,-5.13,-31.23,-31.23,0,*54
1517076061.02,57464,10.63,74206.3,-5.17,-31.29,-31.29,0,*57
1517076062.26,57465,10.63,74210.8,-5.17,-31.39,-31.29,0,*57
1517076063.49,57466,10.63,74210.3,-5.17,-31.39,-31.45,0,*5E
1517076064.78,57467,10.56,74202.5,-5.19,-31.61,-31.51,0,*59
1517076066.07,57468,10.63,74204.3,-5.19,-31.23,-31.23,0,*55
1517076067.31,57469,10.63,74204.8,-5.19,-31.33,-31.29,0,*5F
1517076068.53,57470,10.63,74210.3,-5.21,-31.29,-31.45,0,*5D
1517076069.82,57471,10.63,74206.3,-5.19,-31.23,-31.23,0,*5D
1517076071.11,57472,10.63,74208.3,-5.19,-31.23,-31.23,0,*5E
1517076072.35,57473,10.63,74206.5,-5.21,-31.23,-31.29,0,*5E
1517076073.62,57474,10.63,74208.0,-5.21,-30.89,-30.89,0,*53
1517076074.92,57475,10.56,74206.5,-5.19,-30.89,-30.77,0,*58
1517076076.21,57476,10.63,74210.0,-5.19,-30.89,-30.77,0,*5B
1517076077.43,57477,10.63,74206.3,-5.17,-30.67,-30.67,0,*55
1517076078.66,57478,10.63,74210.5,-5.13,-30.67,-30.51,0,*5B
1517076079.88,57479,10.63,74208.8,-5.17,-30.83,-30.67,0,*51
1517076081.14,57480,10.63,74204.5,-5.13,-30.73,-30.51,0,*59
1517076082.39,57481,10.63,74208.5,-5.13,-30.61,-30.51,0,*5B
1517076083.6,57482,10.63,74210.5,-5.13,-30.45,-30.33,0,*5A
1517076084.8,57483,10.63,74210.5,-5.17,-30.33,-30.27,0,*5B
1517076086.01,57484,10.63,74208.8,-5.13,-30.33,-30.33,0,*5D
1517076087.21,57485,10.63,74214.8,-5.17,-30.33,-30.23,0,*59
1517076088.45,57486,10.63,74208.8,-5.13,-30.27,-30.17,0,*5C
1517076089.69,57487,10.63,74210.8,-5.11,-30.27,-30.27,0,*5C
1517076090.92,57488,10.63,74210.3,-5.09,-30.11,-30.17,0,*5C
1517076092.13,57489,10.63,74212.3,-5.09,-30.27,-30.27,0,*5B
1517076093.37,57490,10.63,74210.8,-5.11,-30.27,-30.27,0,*5A
1517076094.58,57491,10.63,74208.8,-5.09,-30.27,-30.27,0,*52
1517076095.86,57492,10.63,74208.8,-5.11,-30.61,-30.61,0,*58
1517076097.12,57493,10.63,74210.0,-5.09,-30.77,-30.73,0,*54
1517076098.35,57494,10.63,74208.3,-5.09,-30.55,-30.45,0,*56
1517076099.56,57495,10.63,74208.3,-5.09,-30.27,-30.27,0,*56
1517076100.78,57496,10.63,74210.0,-5.09,-30.45,-30.39,0,*5E
1517076102.01,57497,10.63,74210.8,-5.09,-30.55,-30.45,0,*55
1517076103.28,57498,10.63,74208.8,-5.07,-30.39,-30.39,0,*55
1517076104.54,57499,10.63,74208.3,-5.05,-30.51,-30.51,0,*56
1517076105.82,57500,10.56,74204.3,-5.07,-30.51,-30.51,0,*55
1517076107.09,57501,10.63,74206.0,-5.07,-30.55,-30.55,0,*54
1517076108.33,57502,10.63,74206.3,-5.05,-30.73,-30.67,0,*50
1517076109.59,57503,10.63,74206.5,-5.07,-30.67,-30.51,0,*53
1517076110.88,57504,10.63,74206.0,-5.07,-30.89,-30.73,0,*54
1517076112.13,57505,10.63,74210.0,-5.07,-30.83,-30.55,0,*5B
1517076113.42,57506,10.63,74204.3,-5.07,-30.89,-30.89,0,*53
1517076114.68,57507,10.63,74208.3,-5.07,-30.89,-30.83,0,*58
1517076115.89,57508,10.56,74200.8,-5.05,-31.01,-31.01,0,*5F
1517076117.1,57509,10.56,74200.5,-5.05,-31.01,-30.83,0,*55
1517076118.35,57510,10.63,74200.5,-5.05,-30.89,-30.83,0,*5C
1517076119.6,57511,10.63,74200.5,-5.05,-30.55,-30.51,0,*53
1517076120.84,57512,10.63,74204.3,-5.05,-30.67,-30.55,0,*55
1517076122.1,57513,10.56,74198.0,-5.05,-30.73,-30.55,0,*51
1517076123.36,57514,10.63,74202.0,-5.05,-30.89,-30.73,0,*57
1517076124.6,57515,10.63,74204.0,-5.03,-30.83,-30.83,0,*55
1517076125.82,57516,10.63,74200.8,-5.05,-31.01,-30.83,0,*5B
1517076127.09,57517,10.63,74202.5,-5.03,-30.61,-30.55,0,*50
1517076128.33,57518,10.63,74202.0,-5.05,-30.67,-30.55,0,*5F
1517076129.57,57519,10.63,74200.0,-5.05,-30.67,-30.51,0,*5A
1517076130.82,57520,10.63,74202.3,-5.03,-30.51,-30.45,0,*56
1517076132.07,57521,10.63,74202.5,-5.05,-30.51,-30.39,0,*5A
1517076133.31,57522,10.63,74200.0,-5.05,-30.67,-30.55,0,*56
1517076134.52,57523,10.56,74202.0,-5.01,-30.67,-30.45,0,*52
1517076135.78,57524,10.63,74200.0,-5.03,-30.83,-30.61,0,*5B
1517076137.02,57525,10.63,74202.5,-5.03,-30.83,-30.83,0,*56
1517076138.25,57526,10.63,74200.8,-5.03,-31.05,-31.01,0,*51
1517076139.45,57527,10.63,74204.0,-5.01,-31.01,-31.05,0,*52
1517076140.65,57528,10.63,74204.0,-5.01,-31.17,-31.17,0,*59
1517076141.91,57529,10.63,74204.5,-5.03,-31.23,-31.05,0,*5E
1517076143.18,57530,10.63,74202.3,-5.03,-31.23,-31.17,0,*55
1517076144.41,57531,10.63,74200.5,-5.03,-31.17,-31.17,0,*53
1517076145.64,57532,10.63,74200.5,-5.03,-31.33,-31.33,0,*50
1517076146.9,57533,10.63,74198.0,-5.03,-31.33,-31.23,0,*50
1517076148.13,57534,10.63,74202.0,-5.03,-31.33,-31.17,0,*50
1517076149.41,57535,10.63,74198.0,-5.03,-31.39,-31.23,0,*5C
1517076150.65,57536,10.63,74196.3,-5.05,-31.39,-31.29,0,*53
1517076151.88,57537,10.63,74200.0,-5.05,-31.39,-31.29,0,*52
1517076153.14,57538,10.63,74200.5,-5.05,-31.39,-31.39,0,*5C
1517076154.41,57539,10.63,74198.8,-5.05,-31.57,-31.39,0,*55
1517076155.67,57540,10.63,74198.5,-5.07,-31.45,-31.39,0,*5A
1517076156.95,57541,10.63,74200.3,-5.07,-31.57,-31.39,0,*58
1517076158.19,57542,10.63,74202.5,-5.07,-31.45,-31.29,0,*59
1517076159.4,57543,10.63,74202.0,-5.05,-31.29,-31.29,0,*50
1517076160.63,57544,10.63,74204.5,-5.07,-31.29,-31.29,0,*55
1517076161.89,57545,10.63,74204.5,-5.07,-31.39,-31.29,0,*55
1517076163.17,57546,10.63,74204.8,-5.07,-31.57,-31.39,0,*5F
1517076164.43,57547,10.56,74200.5,-5.07,-31.45,-31.39,0,*5D
1517076165.69,57548,10.63,74204.3,-5.07,-31.57,-31.29,0,*50
1517076166.9,57549,10.63,74206.3,-5.09,-31.29,-31.29,0,*56
1517076168.19,57550,10.63,74204.8,-5.07,-31.23,-31.11,0,*51
1517076169.4,57551,10.56,74204.5,-5.09,-31.29,-31.29,0,*5F
1517076170.66,57552,10.63,74204.0,-5.11,-31.39,-31.17,0,*59
1517076171.87,57553,10.63,74204.0,-5.09,-31.45,-31.33,0,*5C
1517076173.12,57554,10.56,74202.3,-5.11,-31.39,-31.33,0,*59
1517076174.35,57555,10.56,74202.5,-5.09,-31.17,-31.11,0,*5D
1517076175.59,57556,10.63,74200.8,-5.13,-31.11,-31.17,0,*55
1517076176.8,57557,10.63,74200.5,-5.09,-31.05,-31.05,0,*59
1517076178.06,57558,10.63,74200.5,-5.11,-30.83,-30.77,0,*54
1517076179.29,57559,10.63,74204.0,-5.09,-30.55,-30.27,0,*52
1517076180.52,57560,10.63,74206.5,-5.09,-30.61,-30.45,0,*5B
1517076181.78,57561,10.56,74200.0,-5.09,-30.73,-30.61,0,*5F
1517076183.05,57562,10.63,74202.8,-5.09,-30.95,-30.89,0,*52
1517076184.32,57563,10.63,74200.8,-5.09,-30.89,-30.77,0,*5F
1517076185.55,57564,10.63,74202.5,-5.09,-31.05,-30.89,0,*5C
1517076186.79,57565,10.63,74202.8,-5.09,-31.05,-30.77,0,*5C
1517076188.05,57566,10.63,74202.0,-5.09,-30.89,-30.73,0,*5E
1517076189.31,57567,10.56,74200.3,-5.09,-30.73,-30.55,0,*5E
1517076190.57,57568,10.63,74200.5,-5.09,-30.73,-30.61,0,*56
1517076191.86,57569,10.63,74200.5,-5.07,-30.73,-30.51,0,*5A
1517076193.1,57570,10.63,74202.3,-5.05,-30.73,-30.67,0,*55
1517076194.36,57571,10.63,74204.3,-5.07,-30.89,-30.67,0,*53
1517076195.65,57572,10.56,74196.3,-5.07,-30.89,-30.89,0,*50
1517076196.86,57573,10.63,74204.3,-5.05,-31.01,-30.83,0,*58
1517076198.12,57574,10.63,74202.8,-5.07,-31.01,-30.89,0,*57
1517076199.41,57575,10.63,74200.0,-5.03,-30.73,-30.61,0,*50
1517076200.65,57576,10.56,74200.0,-5.05,-30.89,-30.83,0,*5C
1517076201.89,57577,10.63,74200.5,-5.05,-31.01,-30.89,0,*56
1517076203.18,57578,10.63,74202.0,-5.07,-31.23,-31.11,0,*5B
1517076204.44,57579,10.63,74206.0,-5.07,-31.29,-31.23,0,*51
1517076205.68,57580,10.56,74206.5,-5.05,-31.11,-31.05,0,*5A
1517076206.92,57581,10.63,74208.0,-5.05,-31.01,-30.89,0,*5F
1517076208.14,57582,10.56,74200.8,-5.07,-31.05,-31.05,0,*5F
1517076209.43,57583,10.63,74200.3,-5.07,-31.23,-31.23,0,*5E
1517076210.72,57584,10.56,74198.8,-5.07,-31.11,-31.11,0,*59
1517076211.98,57585,10.63,74204.5,-5.07,-31.29,-31.11,0,*53
1517076213.24,57586,10.63,74202.8,-5.07,-31.11,-31.05,0,*5E
1517076214.46,57587,10.56,74204.5,-5.07,-31.05,-31.01,0,*5E
1517076215.72,57588,10.56,74204.5,-5.07,-31.01,-30.89,0,*54
1517076216.96,57589,10.63,74206.5,-5.07,-31.01,-30.83,0,*5F
1517076218.18,57590,10.63,74204.0,-5.07,-31.05,-31.01,0,*58
1517076219.44,57591,10.63,74206.5,-5.07,-31.11,-31.05,0,*58
1517076220.73,57592,10.56,74200.8,-5.07,-31.23,-31.23,0,*5E
1517076221.96,57593,10.63,74206.8,-5.07,-31.01,-31.01,0,*5F
1517076223.16,57594,10.63,74204.3,-5.05,-31.05,-31.01,0,*5E
1517076224.4,57595,10.63,74204.0,-5.05,-31.11,-31.01,0,*5A
1517076225.69,57596,10.63,74206.0,-5.07,-31.23,-31.23,0,*5A
1517076226.96,57597,10.63,74204.5,-5.05,-31.23,-31.11,0,*58
1517076228.25,57598,10.63,74206.3,-5.07,-31.23,-31.11,0,*55
1517076229.54,57599,10.63,74204.8,-5.07,-31.23,-31.11,0,*54
1517076230.8,57600,10.56,74202.0,-5.07,-31.23,-31.29,0,*5C
1517076232.09,57601,10.63,74200.3,-5.07,-31.23,-31.23,0,*57
1517076233.38,57602,10.63,74202.5,-5.07,-31.23,-31.23,0,*54
1517076234.64,57603,10.56,74198.5,-5.07,-31.23,-31.29,0,*5F
1517076235.87,57604,10.56,74196.0,-5.07,-31.29,-31.29,0,*52
1517076237.09,57605,10.56,74202.0,-5.09,-31.33,-31.45,0,*5C
1517076238.29,57606,10.56,74198.5,-5.09,-31.29,-31.33,0,*55
1517076239.5,57607,10.63,74198.0,-5.09,-31.17,-31.17,0,*5F
1517076240.79,57608,10.63,74198.0,-5.11,-31.11,-31.23,0,*58
1517076242.0,57609,10.63,74200.0,-5.09,-31.05,-31.17,0,*52
1517076243.22,57610,10.63,74200.8,-5.11,-31.17,-31.33,0,*56
1517076244.44,57611,10.56,74198.5,-5.09,-31.45,-31.45,0,*58
1517076245.66,57612,10.63,74202.3,-5.09,-31.29,-31.45,0,*51
1517076246.86,57613,10.56,74198.5,-5.09,-31.29,-31.33,0,*51
1517076248.07,57614,10.63,74200.8,-5.09,-31.05,-31.17,0,*5E
1517076249.28,57615,10.56,74202.5,-5.09,-31.29,-31.29,0,*5C
1517076250.53,57616,10.63,74204.3,-5.11,-31.33,-31.39,0,*5C
1517076251.82,57617,10.56,74204.3,-5.11,-31.23,-31.39,0,*5C
1517076253.08,57618,10.56,74204.5,-5.09,-31.23,-31.11,0,*50
1517076254.29,57619,10.63,74204.5,-5.09,-31.05,-31.05,0,*50
1517076255.55,57620,10.56,74204.5,-5.09,-31.11,-31.11,0,*5A
1517076256.81,57621,10.56,74204.8,-5.11,-31.17,-31.23,0,*55
1517076258.04,57622,10.63,74206.0,-5.11,-31.33,-31.33,0,*51
1517076259.27,57623,10.63,74206.5,-5.11,-31.33,-31.33,0,*50
1517076260.55,57624,10.56,74204.5,-5.11,-31.39,-31.39,0,*57
1517076261.78,57625,10.56,74202.3,-5.11,-31.33,-31.33,0,*56
1517076263.06,57626,10.63,74204.0,-5.11,-31.51,-31.51,0,*55
1517076264.34,57627,10.56,74200.0,-5.11,-31.39,-31.51,0,*5A
1517076265.61,57628,10.56,74200.3,-5.11,-31.39,-31.51,0,*55
1517076266.9,57629,10.63,74204.5,-5.11,-31.51,-31.51,0,*5A
1517076268.17,57630,10.63,74204.8,-5.11,-31.39,-31.39,0,*52
1517076269.43,57631,10.56,74202.5,-5.13,-31.39,-31.51,0,*5F
1517076270.69,57632,10.63,74208.0,-5.13,-31.39,-31.39,0,*52
1517076271.95,57633,10.63,74206.0,-5.13,-31.39,-31.51,0,*5D
1517076273.18,57634,10.63,74204.3,-5.13,-31.23,-31.33,0,*55
1517076274.47,57635,10.56,74204.5,-5.11,-31.23,-31.23,0,*57
1517076275.68,57636,10.63,74204.3,-5.13,-31.17,-31.17,0,*56
1517076276.89,57637,10.56,74202.3,-5.13,-31.17,-31.33,0,*51
1517076278.09,57638,10.56,74200.8,-5.13,-31.17,-31.33,0,*5E
1517076279.33,57639,10.63,74204.5,-5.13,-31.17,-31.23,0,*5E
1517076280.56,57640,10.56,74202.5,-5.13,-31.17,-31.11,0,*51
1517076281.77,57641,10.63,74208.0,-5.13,-31.17,-31.17,0,*56
1517076282.98,57642,10.63,74204.5,-5.13,-31.33,-31.33,0,*55
1517076284.23,57643,10.56,74206.3,-5.11,-31.33,-31.39,0,*5C
1517076285.49,57644,10.56,74204.3,-5.13,-31.39,-31.51,0,*5D
1517076286.73,57645,10.56,74202.8,-5.17,-31.39,-31.45,0,*5D
1517076287.96,57646,10.56,74206.5,-5.13,-31.17,-31.39,0,*5D
1517076289.22,57647,10.56,74206.0,-5.13,-31.39,-31.51,0,*5E
1517076290.47,57648,10.56,74206.3,-5.13,-31.39,-31.51,0,*51
1517076291.71,57649,10.56,74206.8,-5.17,-31.45,-31.57,0,*59
1517076292.94,57650,10.63,74210.8,-5.17,-31.45,-31.57,0,*51
1517076294.17,57651,10.56,74204.5,-5.17,-31.45,-31.57,0,*50
1517076295.4,57652,10.63,74210.8,-5.17,-31.45,-31.57,0,*53
1517076296.64,57653,10.56,74206.0,-5.17,-31.39,-31.45,0,*5A
1517076297.88,57654,10.56,74206.8,-5.17,-31.23,-31.45,0,*56
1517076299.09,57655,10.56,74210.5,-5.17,-31.17,-31.29,0,*5A
1517076300.32,57656,10.63,74212.8,-5.17,-30.89,-31.01,0,*55
1517076301.53,57657,10.63,74210.8,-5.17,-30.83,-31.01,0,*5E
1517076302.74,57658,10.56,74206.8,-5.17,-31.05,-31.05,0,*5A
1517076303.97,57659,10.63,74208.5,-5.17,-31.05,-31.23,0,*5F
1517076305.21,57660,10.56,74204.8,-5.19,-31.29,-31.45,0,*55
1517076306.44,57661,10.63,74206.8,-5.17,-31.29,-31.39,0,*51
1517076307.66,57662,10.56,74204.8,-5.17,-31.29,-31.45,0,*59
1517076308.9,57663,10.63,74206.0,-5.17,-31.23,-31.45,0,*52
1517076310.15,57664,10.56,74204.0,-5.17,-31.39,-31.57,0,*5D
1517076311.41,57665,10.63,74208.3,-5.17,-31.39,-31.39,0,*54
1517076312.64,57666,10.63,74208.5,-5.17,-31.29,-31.57,0,*5E
1517076313.9,57667,10.56,74206.0,-5.17,-31.23,-31.39,0,*5D
1517076315.11,57668,10.63,74206.5,-5.17,-31.17,-31.29,0,*54
1517076316.32,57669,10.56,74206.3,-5.17,-31.17,-31.17,0,*58
1517076317.56,57670,10.63,74206.8,-5.17,-31.17,-31.23,0,*57
1517076318.8,57671,10.63,74204.0,-5.17,-31.23,-31.45,0,*51
1517076320.03,57672,10.63,74204.8,-5.13,-31.17,-31.39,0,*5A
1517076321.26,57673,10.56,74204.5,-5.19,-31.29,-31.33,0,*56
1517076322.5,57674,10.63,74204.3,-5.17,-31.39,-31.45,0,*5F
1517076323.76,57675,10.56,74206.5,-5.19,-31.45,-31.61,0,*5D
1517076325.05,57676,10.63,74204.8,-5.19,-31.51,-31.61,0,*5B
1517076326.31,57677,10.63,74208.5,-5.19,-31.45,-31.61,0,*5F
1517076327.58,57678,10.56,74204.0,-5.19,-31.45,-31.61,0,*50
1517076328.86,57679,10.63,74208.3,-5.19,-31.61,-31.61,0,*57
1517076330.15,57680,10.63,74208.8,-5.19,-31.61,-31.61,0,*51
1517076331.44,57681,10.56,74206.0,-5.19,-31.51,-31.61,0,*53
1517076332.7,57682,10.56,74204.5,-5.19,-31.45,-31.61,0,*55
1517076333.96,57683,10.56,74206.5,-5.21,-31.51,-31.61,0,*5A
1517076335.2,57684,10.56,74204.3,-5.19,-31.33,-31.45,0,*54
1517076336.42,57685,10.56,74204.5,-5.21,-31.33,-31.45,0,*5E
1517076337.69,57686,10.56,74206.3,-5.21,-31.23,-31.23,0,*5C
1517076338.95,57687,10.63,74208.5,-5.19,-31.23,-31.29,0,*5C
1517076340.17,57688,10.56,74208.8,-5.21,-31.29,-31.45,0,*58
1517076341.43,57689,10.56,74208.5,-5.19,-31.23,-31.33,0,*59
1517076342.67,57690,10.56,74208.3,-5.21,-31.23,-31.33,0,*5A
1517076343.91,57691,10.56,74206.0,-5.21,-31.23,-31.33,0,*5B
1517076345.16,57692,10.56,74206.5,-5.19,-31.05,-31.11,0,*57
1517076346.37,57693,10.56,74208.0,-5.21,-31.05,-31.05,0,*58
1517076347.64,57694,10.56,74206.0,-5.19,-31.11,-31.29,0,*5F
1517076348.88,57695,10.56,74204.5,-5.21,-31.23,-31.45,0,*5E
1517076350.11,57696,10.56,74204.5,-5.19,-31.29,-31.33,0,*5D
1517076351.37,57697,10.63,74210.0,-5.19,-31.33,-31.51,0,*53
1517076352.58,57698,10.56,74204.5,-5.21,-31.33,-31.33,0,*53
1517076353.8,57699,10.56,74204.3,-5.21,-31.29,-31.45,0,*58
1517076355.03,57700,10.56,74204.8,-5.21,-31.33,-31.51,0,*57
1517076356.27,57701,10.56,74206.3,-5.19,-31.29,-31.33,0,*52
1517076357.53,57702,10.56,74204.8,-5.19,-31.23,-31.29,0,*50
1517076358.75,57703,10.56,74206.8,-5.21,-31.33,-31.45,0,*51
1517076359.99,57704,10.56,74204.5,-5.21,-31.45,-31.61,0,*51
1517076361.2,57705,10.56,74206.5,-5.21,-31.29,-31.33,0,*5D
1517076362.41,57706,10.56,74206.0,-5.21,-31.05,-31.05,0,*55
1517076363.67,57707,10.56,74200.3,-5.21,-30.95,-30.95,0,*54
1517076364.93,57708,10.56,74204.3,-5.21,-30.95,-30.95,0,*5B
1517076366.22,57709,10.56,74204.5,-5.19,-30.89,-30.89,0,*51
1517076367.48,57710,10.56,74200.0,-5.21,-31.11,-30.95,0,*5F
1517076368.74,57711,10.56,74206.3,-5.19,-31.11,-31.29,0,*53
1517076370.01,57712,10.56,74204.8,-5.21,-31.11,-31.23,0,*51
1517076371.26,57713,10.56,74206.3,-5.21,-31.23,-31.45,0,*51
1517076372.48,57714,10.56,74208.5,-5.21,-31.29,-31.45,0,*5C
1517076373.72,57715,10.56,74210.3,-5.21,-31.23,-31.33,0,*56
1517076374.96,57716,10.56,74204.3,-5.21,-31.23,-31.29,0,*5E
1517076376.22,57717,10.63,74210.8,-5.19,-31.23,-31.29,0,*54
1517076377.49,57718,10.56,74206.3,-5.21,-31.23,-31.11,0,*5B
1517076378.78,57719,10.63,74204.8,-5.19,-31.11,-31.23,0,*51
1517076380.07,57720,10.56,74202.0,-5.19,-31.11,-31.11,0,*5A
1517076381.33,57721,10.63,74210.8,-5.19,-31.23,-31.33,0,*5A
1517076382.6,57722,10.56,74208.8,-5.19,-31.23,-31.33,0,*59
1517076383.81,57723,10.56,74206.5,-5.21,-31.33,-31.45,0,*53
1517076385.04,57724,10.56,74204.5,-5.19,-31.33,-31.33,0,*5E
1517076386.28,57725,10.56,74204.3,-5.19,-31.33,-31.45,0,*5E
1517076387.52,57726,10.56,74206.8,-5.19,-31.29,-31.45,0,*56
1517076388.74,57727,10.56,74204.3,-5.21,-31.45,-31.33,0,*57
1517076389.96,57728,10.56,74200.3,-5.21,-31.45,-31.45,0,*59
1517076391.17,57729,10.56,74204.3,-5.21,-31.33,-31.45,0,*59
1517076392.38,57730,10.56,74204.3,-5.21,-31.33,-31.33,0,*50
1517076393.64,57731,10.56,74208.0,-5.25,-31.51,-31.39,0,*5B
1517076394.88,57732,10.63,74210.5,-5.21,-31.45,-31.51,0,*57
1517076396.12,57733,10.63,74208.0,-5.21,-31.45,-31.51,0,*56
1517076397.36,57734,10.63,74208.3,-5.21,-31.33,-31.61,0,*53
1517076398.59,57735,10.56,74208.5,-5.25,-31.39,-31.67,0,*5A
1517076399.79,57736,10.56,74208.0,-5.25,-31.67,-31.67,0,*52
1517076401.05,57737,10.56,74208.0,-5.25,-31.51,-31.57,0,*55
1517076402.31,57738,10.56,74208.3,-5.25,-31.51,-31.51,0,*5C
1517076403.55,57739,10.63,74210.8,-5.25,-31.33,-31.39,0,*57
1517076404.8,57740,10.56,74210.8,-5.27,-31.33,-31.39,0,*5B
1517076406.06,57741,10.56,74208.3,-5.27,-31.33,-31.51,0,*54
1517076407.28,57742,10.56,74208.0,-5.25,-31.29,-31.33,0,*5A
1517076408.51,57743,10.56,74210.3,-5.25,-31.39,-31.33,0,*5A
1517076409.79,57744,10.56,74206.3,-5.27,-31.39,-31.51,0,*5B
1517076411.07,57745,10.63,74208.8,-5.27,-31.51,-31.51,0,*54
1517076412.31,57746,10.56,74208.5,-5.27,-31.33,-31.33,0,*57
1517076413.56,57747,10.63,74210.0,-5.27,-31.01,-30.95,0,*5A
1517076414.82,57748,10.56,74210.0,-5.27,-31.11,-31.01,0,*58
1517076416.11,57749,10.56,74210.8,-5.27,-30.95,-30.95,0,*58
1517076417.37,57750,10.56,74210.0,-5.25,-31.11,-31.11,0,*52
1517076418.59,57751,10.56,74214.0,-5.25,-31.17,-31.17,0,*53
1517076419.82,57752,10.56,74210.8,-5.27,-31.17,-31.29,0,*5F
1517076421.04,57753,10.56,74214.0,-5.25,-31.17,-31.17,0,*51
1517076422.3,57754,10.56,74210.5,-5.27,-31.11,-31.29,0,*5F
1517076423.53,57755,10.56,74210.3,-5.27,-31.33,-31.33,0,*55
1517076424.77,57756,10.63,74214.0,-5.27,-31.29,-31.33,0,*5D
1517076426.03,57757,10.56,74208.5,-5.27,-31.29,-31.39,0,*56
1517076427.26,57758,10.63,74212.3,-5.25,-31.33,-31.39,0,*50
1517076428.48,57759,10.56,74206.0,-5.25,-31.29,-31.29,0,*5B
1517076429.71,57760,10.56,74204.0,-5.27,-31.29,-31.17,0,*5E
1517076430.95,57761,10.56,74208.3,-5.27,-31.29,-31.29,0,*52
1517076432.16,57762,10.56,74208.3,-5.25,-31.29,-31.29,0,*53
1517076433.4,57763,10.56,74208.0,-5.27,-31.17,-31.33,0,*56
1517076434.68,57764,10.56,74208.5,-5.27,-31.39,-31.51,0,*59
1517076435.96,57765,10.56,74210.5,-5.27,-31.39,-31.51,0,*58
1517076437.22,57766,10.56,74206.8,-5.25,-31.39,-31.39,0,*57
1517076438.46,57767,10.56,74204.3,-5.27,-31.33,-31.29,0,*5F
1517076439.7,57768,10.56,74204.0,-5.27,-31.29,-31.17,0,*56
1517076440.93,57769,10.56,74206.8,-5.27,-31.17,-31.29,0,*57
1517076442.17,57770,10.56,74202.8,-5.27,-31.29,-31.33,0,*59
1517076443.38,57771,10.56,74206.0,-5.25,-31.29,-31.29,0,*51
1517076444.61,57772,10.63,74208.8,-5.27,-31.33,-31.33,0,*50
1517076445.84,57773,10.56,74208.8,-5.27,-31.29,-31.33,0,*5A
1517076447.08,57774,10.56,74204.0,-5.27,-31.17,-31.17,0,*56
1517076448.31,57775,10.56,74204.8,-5.27,-31.33,-31.33,0,*57
1517076449.55,57776,10.56,74208.5,-5.27,-31.33,-31.33,0,*54
1517076450.78,57777,10.56,74204.8,-5.27,-31.33,-31.29,0,*5E
1517076452.05,57778,10.56,74208.5,-5.31,-31.33,-31.23,0,*5C
1517076453.31,57779,10.56,74208.5,-5.27,-31.11,-31.01,0,*5A
1517076454.6,57780,10.56,74208.0,-5.27,-31.11,-31.11,0,*5D
1517076455.84,57781,10.56,74212.5,-5.29,-31.23,-31.33,0,*53
1517076457.11,57782,10.56,74210.8,-5.29,-31.39,-31.39,0,*51
1517076458.34,57783,10.56,74212.0,-5.27,-31.29,-31.29,0,*5E
1517076459.56,57784,10.56,74214.8,-5.29,-31.33,-31.33,0,*57
1517076460.83,57785,10.56,74214.5,-5.29,-31.23,-31.23,0,*56
1517076462.04,57786,10.56,74210.3,-5.29,-31.33,-31.33,0,*55
1517076463.26,57787,10.56,74210.5,-5.29,-31.33,-31.17,0,*52
1517076464.47,57788,10.56,74214.0,-5.29,-31.05,-31.05,0,*5B
1517076465.72,57789,10.56,74214.0,-5.29,-31.23,-31.17,0,*5D
1517076466.99,57790,10.56,74214.0,-5.29,-31.23,-31.23,0,*52
1517076468.22,57791,10.56,74212.3,-5.27,-31.33,-31.33,0,*5D
1517076469.45,57792,10.56,74214.0,-5.27,-31.29,-31.33,0,*55
1517076470.67,57793,10.56,74210.5,-5.29,-31.33,-31.33,0,*51
1517076471.88,57794,10.56,74210.5,-5.29,-31.05,-31.01,0,*52
1517076473.15,57795,10.56,74212.8,-5.29,-31.23,-31.23,0,*57
1517076474.38,57796,10.56,74210.0,-5.27,-31.17,-31.29,0,*57
1517076475.63,57797,10.63,74212.3,-5.29,-31.33,-31.39,0,*5F
1517076476.86,57798,10.56,74208.8,-5.27,-31.29,-31.17,0,*59
1517076478.12,57799,10.56,74214.3,-5.27,-31.17,-31.11,0,*53
1517076479.41,57800,10.56,74212.8,-5.27,-30.95,-30.95,0,*5A
1517076480.64,57801,10.63,74212.8,-5.27,-31.17,-31.33,0,*5D
1517076481.9,57802,10.63,74212.3,-5.27,-31.29,-31.39,0,*59
1517076483.16,57803,10.56,74208.8,-5.31,-31.33,-31.23,0,*5F
1517076484.4,57804,10.56,74212.8,-5.29,-31.39,-31.33,0,*5A
1517076485.64,57805,10.56,74208.5,-5.29,-31.33,-31.23,0,*50
1517076486.91,57806,10.56,74210.3,-5.29,-31.39,-31.39,0,*52
1517076488.18,57807,10.56,74210.8,-5.31,-31.57,-31.45,0,*59
1517076489.4,57808,10.56,74208.0,-5.29,-31.45,-31.45,0,*5C
1517076490.65,57809,10.56,74210.3,-5.29,-31.33,-31.23,0,*5C
1517076491.89,57810,10.56,74210.8,-5.29,-31.33,-31.23,0,*54
1517076493.16,57811,10.56,74210.0,-5.29,-31.23,-31.23,0,*54
1517076494.43,57812,10.56,74208.5,-5.31,-31.23,-31.33,0,*5F
1517076495.65,57813,10.56,74208.8,-5.29,-31.17,-31.17,0,*56
1517076496.86,57814,10.56,74208.3,-5.29,-31.17,-31.05,0,*52